Anula, Australia

3:23 AM ACST on August 21, 2017 (GMT +0930)
Anula

Weather History for 94120 - December, 2012

Change the Weather History Date:

Monday, December 31, 2012

  Actual Average Record
Temperature  
Mean Temperature 83 °F -  
Max Temperature 90 °F 89 °F - ()
Min Temperature 76 °F 77 °F - ()
Cooling Degree Days 18    
Growing Degree Days 33 (Base 50)    
Moisture  
Dew Point 77 °F    
Average Humidity 78    
Maximum Humidity 94    
Minimum Humidity 55    
Precipitation  
Precipitation 0.00 in 0.58 in - ()
Sea Level Pressure  
Sea Level Pressure 29.69 in    
Wind  
Wind Speed 5 mph ()    
Max Wind Speed 13 mph    
Max Gust Speed -    
Visibility 8.2 miles    
Events Rain , Thunderstorm    
T = Trace of Precipitation, MM = Missing Value Source: Averaged Metar Reports

Daily Weather History Graph

Daily Weather History Graph

Search for Another Location

Airport or City:

Trip Planner

Search our weather history database for the weather conditions in past years. The results will help you decide how hot, cold, wet, or windy it might be!

Date:

Astronomy

Dec. 31, 2012 Rise Set
Actual Time 6:24 AM ACST 7:14 PM ACST
Civil Twilight 6:00 AM ACST 7:38 PM ACST
Nautical Twilight 5:33 AM ACST 8:05 PM ACST
Astronomical Twilight 5:05 AM ACST 8:33 PM ACST
Moon 9:17 PM ACST (12/31) 8:30 AM ACST (12/31)
Length of Visible Light 13h 37m
Length of Day
12h 50m
Waning Gibbous, 93% of the Moon is Illuminated
Dec 31
Waning Gibbous
Jan 5
Last Quarter
Jan 12
New
Jan 19
First Quarter
Jan 27
Full

Hourly Weather History & Observations

Time (ACST) Temp. Heat Index Dew Point Humidity Pressure Visibility Wind Dir Wind Speed Gust Speed Precip Events Conditions
12:00 AM 81 °F - 78 °F 90% 29.73 in 19 mi Calm Calm - -   Partly Cloudy
12:00 AM 80.6 °F 88.1 °F 78.8 °F 94% 29.74 in 6.2 mi Calm Calm - N/A   Mostly Cloudy
12:30 AM 81 °F - 78 °F 89% 29.73 in - Calm Calm - -  
12:30 AM 80.6 °F 88.1 °F 78.8 °F 94% 29.71 in 6.2 mi Calm Calm - N/A   Mostly Cloudy
1:00 AM 80.6 °F 88.1 °F 78.8 °F 94% 29.71 in 6.2 mi East 4.6 mph - N/A   Mostly Cloudy
1:30 AM 80.6 °F 88.1 °F 78.8 °F 94% 29.71 in 6.2 mi East 4.6 mph - N/A   Mostly Cloudy
2:00 AM 80.6 °F 88.1 °F 78.8 °F 94% 29.71 in 6.2 mi East 4.6 mph - N/A   Mostly Cloudy
2:30 AM 80.6 °F 88.1 °F 78.8 °F 94% 29.71 in 6.2 mi ENE 5.8 mph - N/A   Scattered Clouds
3:00 AM 81 °F - 78 °F 88% 29.70 in 19 mi ESE 8.1 mph - -   Partly Cloudy
3:00 AM 80.6 °F 88.1 °F 78.8 °F 94% 29.71 in 6.2 mi ESE 8.1 mph - N/A   Scattered Clouds
3:10 AM 80.6 °F 87.1 °F 77.0 °F 89% 29.71 in 6.2 mi ESE 4.6 mph - N/A Rain , Thunderstorm Light Thunderstorms and Rain
3:30 AM 80 °F - 78 °F 91% 29.71 in - NW 6.9 mph - -  
3:30 AM 80.6 °F 88.1 °F 78.8 °F 94% 29.71 in 6.2 mi NW 6.9 mph - N/A Thunderstorm Thunderstorm
3:36 AM 80.6 °F 87.1 °F 77.0 °F 89% 29.71 in 6.2 mi North 5.8 mph - N/A Thunderstorm Thunderstorm
3:42 AM 80.6 °F 87.1 °F 77.0 °F 89% 29.71 in 6.2 mi NNE 6.9 mph - N/A Thunderstorm Thunderstorm
4:00 AM 80.6 °F 86.2 °F 75.2 °F 84% 29.68 in 6.2 mi NW 6.9 mph - N/A Thunderstorm Thunderstorm
4:30 AM 78.8 °F - 77.0 °F 94% 29.68 in 6.2 mi Calm Calm - N/A   Mostly Cloudy
5:00 AM 78.8 °F - 75.2 °F 89% 29.68 in 6.2 mi ENE 5.8 mph - N/A   Mostly Cloudy
5:30 AM 78.8 °F - 75.2 °F 89% 29.68 in 6.2 mi East 6.9 mph - N/A   Mostly Cloudy
6:00 AM 79 °F - 76 °F 87% 29.71 in 19 mi NNE 9.2 mph - -   Partly Cloudy
6:00 AM 78.8 °F - 75.2 °F 89% 29.71 in 6.2 mi NNE 9.2 mph - N/A   Mostly Cloudy
6:30 AM 78 °F - 76 °F 92% 29.72 in - NNE 6.9 mph - -  
6:30 AM 78.8 °F - 77.0 °F 94% 29.71 in 6.2 mi NNE 6.9 mph - N/A   Mostly Cloudy
7:00 AM 78.8 °F - 77.0 °F 94% 29.74 in 6.2 mi NNE 5.8 mph - N/A   Mostly Cloudy
7:30 AM 80.6 °F 87.1 °F 77.0 °F 89% 29.74 in 6.2 mi East 5.8 mph - N/A   Mostly Cloudy
8:00 AM 82.4 °F 90.9 °F 77.0 °F 84% 29.74 in 6.2 mi ENE 5.8 mph - N/A   Mostly Cloudy
8:30 AM 84.2 °F 94.1 °F 77.0 °F 79% 29.74 in - ENE 5.8 mph - N/A   Clear
9:00 AM 86 °F - 75 °F 63% 29.76 in 19 mi SSE 4.6 mph - -   Partly Cloudy
9:00 AM 86.0 °F 95.1 °F 75.2 °F 70% 29.74 in - SSE 4.6 mph - N/A   Clear
9:30 AM 87 °F - 76 °F 62% 29.74 in - SE 4.6 mph - -  
9:30 AM 87.8 °F 97.6 °F 75.2 °F 66% 29.74 in 6.2 mi SE 4.6 mph - N/A   Mostly Cloudy
10:00 AM 87.8 °F 97.6 °F 75.2 °F 66% 29.74 in 6.2 mi West 3.5 mph - N/A   Mostly Cloudy
10:30 AM 87.8 °F 99.7 °F 77.0 °F 70% 29.71 in 6.2 mi West 8.1 mph - N/A   Mostly Cloudy
11:00 AM 87.8 °F 99.7 °F 77.0 °F 70% 29.71 in 6.2 mi SW 5.8 mph - N/A   Mostly Cloudy
11:30 AM 89.6 °F 99.8 °F 75.2 °F 62% 29.71 in 6.2 mi South 6.9 mph - N/A   Mostly Cloudy
12:00 PM 89 °F - 75 °F 55% 29.70 in 19 mi NW 6.9 mph - -   Partly Cloudy
12:00 PM 89.6 °F 99.8 °F 75.2 °F 62% 29.71 in 6.2 mi NW 6.9 mph - N/A   Mostly Cloudy
12:30 PM 89 °F - 77 °F 59% 29.70 in - NW 9.2 mph - -  
12:30 PM 89.6 °F 102.2 °F 77.0 °F 66% 29.68 in 6.2 mi NW 9.2 mph - N/A   Mostly Cloudy
1:00 PM 89.6 °F 98.2 °F 73.4 °F 59% 29.68 in 6.2 mi NW 6.9 mph - N/A   Mostly Cloudy
1:30 PM 89.6 °F 102.2 °F 77.0 °F 66% 29.68 in 6.2 mi WNW 9.2 mph - N/A   Mostly Cloudy
2:00 PM 89.6 °F 102.2 °F 77.0 °F 66% 29.65 in 6.2 mi NW 10.4 mph - N/A   Mostly Cloudy
2:30 PM 89.6 °F 102.2 °F 77.0 °F 66% 29.65 in 6.2 mi WNW 10.4 mph - N/A   Mostly Cloudy
3:00 PM 89 °F - 77 °F 60% 29.66 in 19 mi WNW 12.7 mph - -   Partly Cloudy
3:00 PM 89.6 °F 102.2 °F 77.0 °F 66% 29.65 in 6.2 mi WNW 12.7 mph - N/A   Mostly Cloudy
3:30 PM 90 °F - 78 °F 59% 29.65 in - WNW 12.7 mph - -  
3:30 PM 89.6 °F 102.2 °F 77.0 °F 66% 29.65 in 6.2 mi WNW 12.7 mph - N/A   Mostly Cloudy
4:00 PM 89.6 °F 102.2 °F 77.0 °F 66% 29.65 in 6.2 mi NW 11.5 mph - N/A   Mostly Cloudy
4:30 PM 89.6 °F 102.2 °F 77.0 °F 66% 29.62 in 6.2 mi NW 10.4 mph - N/A   Mostly Cloudy
5:00 PM 89.6 °F 102.2 °F 77.0 °F 66% 29.62 in 6.2 mi NW 11.5 mph - N/A   Mostly Cloudy
5:30 PM 89.6 °F 102.2 °F 77.0 °F 66% 29.62 in 6.2 mi NW 11.5 mph - N/A   Mostly Cloudy
6:00 PM 88 °F - 77 °F 62% 29.64 in 19 mi NW 10.4 mph - -   Partly Cloudy
6:00 PM 87.8 °F 99.7 °F 77.0 °F 70% 29.62 in 6.2 mi NW 10.4 mph - N/A   Mostly Cloudy
6:30 PM 88 °F - 76 °F 61% 29.65 in - WNW 9.2 mph - -  
6:30 PM 87.8 °F 99.7 °F 77.0 °F 70% 29.65 in 6.2 mi WNW 9.2 mph - N/A   Mostly Cloudy
7:00 PM 87.8 °F 99.7 °F 77.0 °F 70% 29.65 in 6.2 mi WNW 9.2 mph - N/A   Scattered Clouds
7:30 PM 86.0 °F 96.9 °F 77.0 °F 74% 29.68 in 6.2 mi WNW 8.1 mph - N/A   Scattered Clouds
8:00 PM 86.0 °F 96.9 °F 77.0 °F 74% 29.68 in 6.2 mi West 6.9 mph - N/A   Scattered Clouds
8:30 PM 86.0 °F 96.9 °F 77.0 °F 74% 29.68 in 6.2 mi WNW 5.8 mph - N/A   Scattered Clouds
9:00 PM 85 °F - 77 °F 72% 29.70 in 19 mi West 5.8 mph - -   Partly Cloudy
9:00 PM 84.2 °F 94.1 °F 77.0 °F 79% 29.71 in - West 5.8 mph - N/A   Clear
9:30 PM 84.2 °F 96.1 °F 78.8 °F 84% 29.71 in - West 6.9 mph - N/A   Clear
10:00 PM 84.2 °F 96.1 °F 78.8 °F 84% 29.71 in - WNW 5.8 mph - N/A   Clear
10:30 PM 84.2 °F 96.1 °F 78.8 °F 84% 29.71 in - WNW 4.6 mph - N/A   Clear
11:00 PM 82.4 °F 92.4 °F 78.8 °F 89% 29.71 in - WNW 3.5 mph - N/A   Clear
11:30 PM 82.4 °F 92.4 °F 78.8 °F 89% 29.71 in - North 5.8 mph - N/A   Clear